Time,TemperatureF,DewpointF,PressureIn,WindDirection,WindDirectionDegrees,WindSpeedMPH,WindSpeedGustMPH,Humidity,HourlyPrecipIn,Conditions,Clouds,dailyrainin,SoftwareType,DateUTC
2013-06-25 00:10:00,57.9,47.4,30.17,WNW,284,0.0,3.0,68,0.00,CLR,CLR,0.00,WeatherDisplay:10.37,2013-06-24 23:10:00,
2013-06-25 00:20:00,57.4,48.1,30.17,NW,318,0.0,2.0,71,0.00,CLR,CLR,0.00,WeatherDisplay:10.37,2013-06-24 23:20:00,
2013-06-25 00:30:00,56.6,49.1,30.18,SE,127,0.0,2.0,76,0.00,CLR,CLR,0.00,WeatherDisplay:10.37,2013-06-24 23:30:00,
2013-06-25 00:40:00,55.9,49.5,30.17,SE,124,1.0,3.0,79,0.00,CLR,CLR,0.00,WeatherDisplay:10.37,2013-06-24 23:40:00,
2013-06-25 00:50:00,55.4,49.7,30.18,SE,132,1.0,3.0,81,0.00,CLR,CLR,0.00,WeatherDisplay:10.37,2013-06-24 23:50:00,
2013-06-25 01:00:00,55.4,49.7,30.18,SSE,161,1.0,4.0,81,0.00,CLR,CLR,0.00,WeatherDisplay:10.37,2013-06-25 00:00:00,
2013-06-25 01:10:00,55.2,49.5,30.18,SE,136,1.0,3.0,81,0.00,CLR,CLR,0.00,WeatherDisplay:10.37,2013-06-25 00:10:00,
2013-06-25 01:40:00,55.4,48.0,30.18,SE,143,2.0,5.0,76,0.00,CLR,CLR,0.00,WeatherDisplay:10.37,2013-06-25 00:40:00,
2013-06-25 01:50:00,55.8,48.0,30.17,SE,128,2.0,5.0,75,0.00,CLR,CLR,0.00,WeatherDisplay:10.37,2013-06-25 00:50:00,
2013-06-25 02:00:00,55.0,47.3,30.17,ESE,112,3.0,5.0,75,0.00,CLR,CLR,0.00,WeatherDisplay:10.37,2013-06-25 01:00:00,
2013-06-25 02:10:00,54.5,47.8,30.17,ESE,118,1.0,5.0,78,0.00,CLR,CLR,0.00,WeatherDisplay:10.37,2013-06-25 01:10:00,
2013-06-25 02:20:00,54.7,48.3,30.17,SE,128,2.0,5.0,79,0.00,CLR,CLR,0.00,WeatherDisplay:10.37,2013-06-25 01:20:00,
2013-06-25 02:30:00,54.7,49.0,30.16,SE,132,5.0,6.0,81,0.00,CLR,CLR,0.00,WeatherDisplay:10.37,2013-06-25 01:30:00,
2013-06-25 02:40:00,54.9,49.5,30.17,ESE,123,3.0,12.0,82,0.00,CLR,CLR,0.00,WeatherDisplay:10.37,2013-06-25 01:40:00,
2013-06-25 02:50:00,54.7,49.3,30.18,SE,138,3.0,6.0,82,0.00,CLR,CLR,0.00,WeatherDisplay:10.37,2013-06-25 01:50:00,
2013-06-25 03:00:00,54.9,49.5,30.18,SSE,154,3.0,6.0,82,0.00,CLR,CLR,0.00,WeatherDisplay:10.37,2013-06-25 02:00:00,
2013-06-25 03:10:00,54.9,49.5,30.18,SSE,161,3.0,6.0,82,0.00,CLR,CLR,0.00,WeatherDisplay:10.37,2013-06-25 02:10:00,
2013-06-25 03:40:00,55.2,50.1,30.18,SSE,164,6.0,8.0,83,0.00,CLR,CLR,0.00,WeatherDisplay:10.37,2013-06-25 02:40:00,
2013-06-25 03:50:00,55.2,50.1,30.18,South,173,5.0,8.0,83,0.00,CLR,CLR,0.00,WeatherDisplay:10.37,2013-06-25 02:50:00,
2013-06-25 04:00:00,55.2,50.1,30.18,SSE,162,5.0,7.0,83,0.00,CLR,CLR,0.00,WeatherDisplay:10.37,2013-06-25 03:00:00,
2013-06-25 04:10:00,55.2,50.1,30.18,SSE,166,3.0,8.0,83,0.00,CLR,CLR,0.00,WeatherDisplay:10.37,2013-06-25 03:10:00,
2013-06-25 04:20:00,55.4,50.6,30.19,SSE,167,7.0,8.0,84,0.00,CLR,CLR,0.00,WeatherDisplay:10.37,2013-06-25 03:20:00,
2013-06-25 04:30:00,55.2,50.1,30.19,South,180,7.0,9.0,83,0.00,CLR,CLR,0.00,WeatherDisplay:10.37,2013-06-25 03:30:00,
2013-06-25 04:40:00,55.2,50.5,30.19,SSE,160,3.0,9.0,84,0.00,CLR,CLR,0.00,WeatherDisplay:10.37,2013-06-25 03:40:00,
2013-06-25 04:50:00,55.0,50.3,30.19,SSE,164,6.0,8.0,84,0.00,CLR,CLR,0.00,WeatherDisplay:10.37,2013-06-25 03:50:00,
2013-06-25 05:10:00,54.9,50.1,30.19,South,176,7.0,10.0,84,0.00,CLR,CLR,0.00,WeatherDisplay:10.37,2013-06-25 04:10:00,
2013-06-25 05:20:00,54.9,50.1,30.19,South,177,8.0,11.0,84,0.00,CLR,CLR,0.00,WeatherDisplay:10.37,2013-06-25 04:20:00,
2013-06-25 05:30:00,54.9,50.1,30.19,South,177,7.0,9.0,84,0.00,CLR,CLR,0.00,WeatherDisplay:10.37,2013-06-25 04:30:00,
2013-06-25 05:40:00,54.9,50.1,30.20,South,174,6.0,9.0,84,0.00,CLR,CLR,0.00,WeatherDisplay:10.37,2013-06-25 04:40:00,
2013-06-25 05:50:00,54.9,50.1,30.20,South,173,5.0,8.0,84,0.00,CLR,CLR,0.00,WeatherDisplay:10.37,2013-06-25 04:50:00,
2013-06-25 06:00:00,55.1,50.3,30.20,SSW,200,8.0,12.0,84,0.00,CLR,CLR,0.00,WeatherDisplay:10.37,2013-06-25 05:00:00,
2013-06-25 06:10:00,55.2,50.1,30.20,SSW,209,6.0,12.0,83,0.00,CLR,CLR,0.00,WeatherDisplay:10.37,2013-06-25 05:10:00,
2013-06-25 06:20:00,55.0,50.3,30.20,South,180,5.0,8.0,84,0.00,CLR,CLR,0.00,WeatherDisplay:10.37,2013-06-25 05:20:00,
2013-06-25 06:30:00,55.2,50.5,30.20,South,180,7.0,9.0,84,0.00,CLR,CLR,0.00,WeatherDisplay:10.37,2013-06-25 05:30:00,
2013-06-25 06:40:00,55.6,51.2,30.20,SSE,159,7.0,9.0,85,0.00,CLR,CLR,0.00,WeatherDisplay:10.37,2013-06-25 05:40:00,
2013-06-25 06:50:00,55.6,51.1,30.20,SSE,154,6.0,8.0,85,0.00,CLR,CLR,0.00,WeatherDisplay:10.37,2013-06-25 05:50:00,
2013-06-25 07:00:00,55.4,51.0,30.21,SSE,164,2.0,8.0,85,0.00,CLR,CLR,0.00,WeatherDisplay:10.37,2013-06-25 06:00:00,
2013-06-25 07:10:00,55.6,51.1,30.21,SSE,159,5.0,6.0,85,0.00,CLR,CLR,0.00,WeatherDisplay:10.37,2013-06-25 06:10:00,
2013-06-25 07:20:00,55.6,51.1,30.21,South,176,5.0,6.0,85,0.00,CLR,CLR,0.00,WeatherDisplay:10.37,2013-06-25 06:20:00,
2013-06-25 07:30:00,55.6,51.1,30.21,South,175,6.0,8.0,85,0.00,CLR,CLR,0.00,WeatherDisplay:10.37,2013-06-25 06:30:00,
2013-06-25 07:40:00,56.3,51.8,30.21,South,178,5.0,8.0,85,0.00,CLR,CLR,0.00,WeatherDisplay:10.37,2013-06-25 06:40:00,
2013-06-25 07:50:00,56.3,51.8,30.22,South,174,6.0,9.0,85,0.00,CLR,CLR,0.00,WeatherDisplay:10.37,2013-06-25 06:50:00,
2013-06-25 08:00:00,56.3,51.5,30.22,South,175,6.0,9.0,84,0.00,CLR,CLR,0.00,WeatherDisplay:10.37,2013-06-25 07:00:00,
2013-06-25 08:10:00,56.5,52.0,30.22,SSE,166,6.0,9.0,85,0.00,CLR,CLR,0.00,WeatherDisplay:10.37,2013-06-25 07:10:00,
2013-06-25 08:20:00,56.8,52.1,30.22,South,172,6.0,10.0,84,0.00,CLR,CLR,0.00,WeatherDisplay:10.37,2013-06-25 07:20:00,
2013-06-25 08:30:00,57.3,52.1,30.22,South,176,6.0,9.0,83,0.00,CLR,CLR,0.00,WeatherDisplay:10.37,2013-06-25 07:30:00,
2013-06-25 08:40:00,57.9,52.1,30.22,South,183,5.0,9.0,81,0.00,CLR,CLR,0.00,WeatherDisplay:10.37,2013-06-25 07:40:00,
2013-06-25 08:50:00,59.3,52.1,30.22,South,182,6.0,7.0,77,0.00,CLR,CLR,0.00,WeatherDisplay:10.37,2013-06-25 07:50:00,
2013-06-25 09:00:00,60.5,52.6,30.23,SSW,199,5.0,8.0,75,0.00,CLR,CLR,0.00,WeatherDisplay:10.37,2013-06-25 08:00:00,
2013-06-25 09:10:00,59.3,51.7,30.23,SW,216,6.0,8.0,76,0.00,CLR,CLR,0.00,WeatherDisplay:10.37,2013-06-25 08:10:00,
2013-06-25 09:20:00,59.2,51.6,30.24,SW,227,5.0,8.0,76,0.00,CLR,CLR,0.00,WeatherDisplay:10.37,2013-06-25 08:20:00,
2013-06-25 09:30:00,59.7,51.8,30.24,SW,226,2.0,6.0,75,0.00,CLR,CLR,0.00,WeatherDisplay:10.37,2013-06-25 08:30:00,
2013-06-25 09:40:00,61.5,52.7,30.23,South,183,3.0,6.0,73,0.00,CLR,CLR,0.00,WeatherDisplay:10.37,2013-06-25 08:40:00,
2013-06-25 09:50:00,60.6,51.9,30.23,SSW,199,3.0,6.0,73,0.00,CLR,CLR,0.00,WeatherDisplay:10.37,2013-06-25 08:50:00,
2013-06-25 10:00:00,59.9,51.6,30.23,SSW,199,6.0,8.0,74,0.00,CLR,CLR,0.00,WeatherDisplay:10.37,2013-06-25 09:00:00,
2013-06-25 10:10:00,60.1,51.8,30.23,SW,225,3.0,8.0,74,0.00,CLR,CLR,0.00,WeatherDisplay:10.37,2013-06-25 09:10:00,
2013-06-25 10:20:00,59.8,51.5,30.24,SW,222,6.0,8.0,74,0.00,CLR,CLR,0.00,WeatherDisplay:10.37,2013-06-25 09:20:00,
2013-06-25 10:30:00,59.0,51.4,30.24,WSW,244,10.0,14.0,76,0.00,CLR,CLR,0.00,WeatherDisplay:10.37,2013-06-25 09:30:00,
2013-06-25 10:40:00,57.2,51.8,30.24,WSW,245,3.0,14.0,82,0.00,CLR,CLR,0.00,WeatherDisplay:10.37,2013-06-25 09:40:00,
2013-06-25 10:50:00,57.4,52.3,30.25,SW,226,3.0,6.0,83,0.00,CLR,CLR,0.00,WeatherDisplay:10.37,2013-06-25 09:50:00,
2013-06-25 11:00:00,58.6,53.2,30.24,SW,234,3.0,6.0,82,0.00,CLR,CLR,0.00,WeatherDisplay:10.37,2013-06-25 10:00:00,
2013-06-25 11:10:00,59.4,52.9,30.24,SW,231,2.0,6.0,79,0.00,CLR,CLR,0.00,WeatherDisplay:10.37,2013-06-25 10:10:00,
2013-06-25 11:20:00,59.9,52.7,30.24,SW,224,3.0,6.0,77,0.00,CLR,CLR,0.00,WeatherDisplay:10.37,2013-06-25 10:20:00,
2013-06-25 11:30:00,59.9,52.7,30.25,WSW,253,3.0,7.0,77,0.00,CLR,CLR,0.00,WeatherDisplay:10.37,2013-06-25 10:30:00,
2013-06-25 11:40:00,59.9,53.0,30.25,SW,230,3.0,7.0,78,0.00,CLR,CLR,0.00,WeatherDisplay:10.37,2013-06-25 10:40:00,
2013-06-25 11:50:00,59.7,52.8,30.25,WSW,245,3.0,7.0,78,0.00,CLR,CLR,0.00,WeatherDisplay:10.37,2013-06-25 10:50:00,
2013-06-25 12:00:00,60.6,53.7,30.25,SW,230,6.0,8.0,78,0.00,CLR,CLR,0.00,WeatherDisplay:10.37,2013-06-25 11:00:00,
2013-06-25 12:10:00,60.6,52.6,30.25,West,259,6.0,10.0,75,0.00,CLR,CLR,0.00,WeatherDisplay:10.37,2013-06-25 11:10:00,
2013-06-25 12:20:00,60.7,52.7,30.25,West,277,6.0,13.0,75,0.00,CLR,CLR,0.00,WeatherDisplay:10.37,2013-06-25 11:20:00,
2013-06-25 12:30:00,61.2,53.2,30.25,WSW,256,9.0,13.0,75,0.00,CLR,CLR,0.00,WeatherDisplay:10.37,2013-06-25 11:30:00,
2013-06-25 12:40:00,61.6,53.2,30.25,West,273,9.0,14.0,74,0.00,CLR,CLR,0.00,WeatherDisplay:10.37,2013-06-25 11:40:00,
2013-06-25 12:50:00,61.2,53.3,30.25,SW,222,12.0,14.0,75,0.00,CLR,CLR,0.00,WeatherDisplay:10.37,2013-06-25 11:50:00,
2013-06-25 13:00:00,60.3,52.3,30.26,SW,235,12.0,15.0,75,0.00,CLR,CLR,0.00,WeatherDisplay:10.37,2013-06-25 12:00:00,
2013-06-25 13:10:00,61.2,53.2,30.26,WSW,256,13.0,16.0,75,0.00,CLR,CLR,0.00,WeatherDisplay:10.37,2013-06-25 12:10:00,
2013-06-25 13:20:00,60.8,53.5,30.26,West,267,10.0,16.0,77,0.00,CLR,CLR,0.00,WeatherDisplay:10.37,2013-06-25 12:20:00,
2013-06-25 13:30:00,59.9,53.1,30.27,WSW,255,10.0,18.0,78,0.00,CLR,CLR,0.00,WeatherDisplay:10.37,2013-06-25 12:30:00,
2013-06-25 13:40:00,59.6,53.0,30.27,West,271,13.0,18.0,79,0.00,CLR,CLR,0.00,WeatherDisplay:10.37,2013-06-25 12:40:00,
2013-06-25 13:50:00,59.9,53.4,30.27,West,281,14.0,18.0,79,0.00,CLR,CLR,0.00,WeatherDisplay:10.37,2013-06-25 12:50:00,
2013-06-25 14:00:00,59.9,53.4,30.27,SW,234,9.0,17.0,79,0.00,CLR,CLR,0.00,WeatherDisplay:10.37,2013-06-25 13:00:00,
2013-06-25 14:10:00,60.7,53.8,30.27,West,265,14.0,18.0,78,0.00,CLR,CLR,0.00,WeatherDisplay:10.37,2013-06-25 13:10:00,
2013-06-25 14:20:00,62.2,54.9,30.28,West,265,16.0,21.0,77,0.00,CLR,CLR,0.00,WeatherDisplay:10.37,2013-06-25 13:20:00,
2013-06-25 14:30:00,63.2,54.8,30.28,West,272,9.0,20.0,74,0.00,CLR,CLR,0.00,WeatherDisplay:10.37,2013-06-25 13:30:00,
2013-06-25 14:40:00,63.7,54.5,30.28,WNW,288,15.0,20.0,72,0.00,CLR,CLR,0.00,WeatherDisplay:10.37,2013-06-25 13:40:00,
2013-06-25 14:50:00,61.9,53.8,30.28,West,278,16.0,23.0,75,0.00,CLR,CLR,0.00,WeatherDisplay:10.37,2013-06-25 13:50:00,
2013-06-25 15:00:00,61.2,54.2,30.29,WSW,257,16.0,22.0,78,0.00,CLR,CLR,0.00,WeatherDisplay:10.37,2013-06-25 14:00:00,
2013-06-25 15:10:00,61.1,54.9,30.28,WSW,253,18.0,23.0,80,0.00,CLR,CLR,0.00,WeatherDisplay:10.37,2013-06-25 14:10:00,
2013-06-25 15:20:00,59.9,54.4,30.29,West,265,13.0,23.0,82,0.00,CLR,CLR,0.00,WeatherDisplay:10.37,2013-06-25 14:20:00,
2013-06-25 15:30:00,60.8,54.6,30.29,WSW,251,17.0,22.0,80,0.00,CLR,CLR,0.00,WeatherDisplay:10.37,2013-06-25 14:30:00,
2013-06-25 15:40:00,60.6,54.4,30.29,WSW,256,14.0,23.0,80,0.00,CLR,CLR,0.00,WeatherDisplay:10.37,2013-06-25 14:40:00,
2013-06-25 15:50:00,60.3,54.1,30.29,WSW,256,14.0,23.0,80,0.00,CLR,CLR,0.00,WeatherDisplay:10.37,2013-06-25 14:50:00,
2013-06-25 16:00:00,60.2,53.7,30.29,WNW,288,13.0,23.0,79,0.00,CLR,CLR,0.00,WeatherDisplay:10.37,2013-06-25 15:00:00,
2013-06-25 16:10:00,59.7,53.5,30.29,West,261,17.0,22.0,80,0.00,CLR,CLR,0.00,WeatherDisplay:10.37,2013-06-25 15:10:00,
2013-06-25 16:20:00,59.5,53.7,30.29,West,263,13.0,21.0,81,0.00,CLR,CLR,0.00,WeatherDisplay:10.37,2013-06-25 15:20:00,
2013-06-25 16:30:00,59.5,54.0,30.29,WSW,245,14.0,21.0,82,0.00,CLR,CLR,0.00,WeatherDisplay:10.37,2013-06-25 15:30:00,
2013-06-25 16:40:00,59.7,53.9,30.29,WSW,256,13.0,20.0,81,0.00,CLR,CLR,0.00,WeatherDisplay:10.37,2013-06-25 15:40:00,
2013-06-25 16:50:00,59.4,53.2,30.30,West,275,15.0,23.0,80,0.00,CLR,CLR,0.00,WeatherDisplay:10.37,2013-06-25 15:50:00,
2013-06-25 17:00:00,59.9,53.4,30.30,WNW,295,15.0,22.0,79,0.00,CLR,CLR,0.00,WeatherDisplay:10.37,2013-06-25 16:00:00,
2013-06-25 17:10:00,59.7,53.2,30.30,West,268,15.0,20.0,79,0.00,CLR,CLR,0.00,WeatherDisplay:10.37,2013-06-25 16:10:00,
2013-06-25 17:20:00,60.4,53.2,30.30,West,269,15.0,22.0,77,0.00,CLR,CLR,0.00,WeatherDisplay:10.37,2013-06-25 16:20:00,
2013-06-25 17:30:00,61.1,53.1,30.30,West,280,13.0,23.0,75,0.00,CLR,CLR,0.00,WeatherDisplay:10.37,2013-06-25 16:30:00,
2013-06-25 17:40:00,60.4,53.2,30.30,West,272,16.0,23.0,77,0.00,CLR,CLR,0.00,WeatherDisplay:10.37,2013-06-25 16:40:00,
2013-06-25 17:50:00,60.0,52.7,30.30,West,270,13.0,22.0,77,0.00,CLR,CLR,0.00,WeatherDisplay:10.37,2013-06-25 16:50:00,
2013-06-25 18:00:00,60.1,52.8,30.30,West,271,13.0,24.0,77,0.00,CLR,CLR,0.00,WeatherDisplay:10.37,2013-06-25 17:00:00,
2013-06-25 18:10:00,60.0,53.1,30.30,West,279,15.0,23.0,78,0.00,CLR,CLR,0.00,WeatherDisplay:10.37,2013-06-25 17:10:00,
2013-06-25 18:20:00,60.3,53.1,30.30,West,267,16.0,23.0,77,0.00,CLR,CLR,0.00,WeatherDisplay:10.37,2013-06-25 17:20:00,
2013-06-25 18:30:00,60.3,53.4,30.30,West,276,14.0,21.0,78,0.00,CLR,CLR,0.00,WeatherDisplay:10.37,2013-06-25 17:30:00,
2013-06-25 18:40:00,60.3,53.0,30.30,WNW,283,13.0,22.0,77,0.00,CLR,CLR,0.00,WeatherDisplay:10.37,2013-06-25 17:40:00,
2013-06-25 18:50:00,61.9,53.2,30.30,NW,308,9.0,18.0,73,0.00,CLR,CLR,0.00,WeatherDisplay:10.37,2013-06-25 17:50:00,
2013-06-25 19:00:00,62.6,51.5,30.30,NW,325,9.0,16.0,67,0.00,CLR,CLR,0.00,WeatherDisplay:10.37,2013-06-25 18:00:00,
2013-06-25 19:10:00,62.6,51.5,30.31,NNW,338,7.0,16.0,67,0.00,CLR,CLR,0.00,WeatherDisplay:10.37,2013-06-25 18:10:00,
2013-06-25 19:20:00,62.4,51.3,30.31,NNW,327,7.0,15.0,67,0.00,CLR,CLR,0.00,WeatherDisplay:10.37,2013-06-25 18:20:00,
2013-06-25 19:30:00,62.1,51.4,30.31,NNW,341,8.0,15.0,68,0.00,CLR,CLR,0.00,WeatherDisplay:10.37,2013-06-25 18:30:00,
2013-06-25 19:40:00,61.5,50.9,30.31,NW,315,8.0,16.0,68,0.00,CLR,CLR,0.00,WeatherDisplay:10.37,2013-06-25 18:40:00,
2013-06-25 19:50:00,61.3,50.7,30.32,NE,47,6.0,13.0,68,0.00,CLR,CLR,0.00,WeatherDisplay:10.37,2013-06-25 18:50:00,
2013-06-25 20:00:00,60.8,50.2,30.32,North,0,3.0,9.0,68,0.00,CLR,CLR,0.00,WeatherDisplay:10.37,2013-06-25 19:00:00,
2013-06-25 20:10:00,61.2,49.3,30.32,NNW,334,5.0,12.0,65,0.00,CLR,CLR,0.00,WeatherDisplay:10.37,2013-06-25 19:10:00,
2013-06-25 20:20:00,61.2,48.5,30.32,North,10,2.0,12.0,63,0.00,CLR,CLR,0.00,WeatherDisplay:10.37,2013-06-25 19:20:00,
2013-06-25 20:30:00,61.0,48.3,30.32,North,355,3.0,9.0,63,0.00,CLR,CLR,0.00,WeatherDisplay:10.37,2013-06-25 19:30:00,
2013-06-25 20:40:00,61.0,48.3,30.32,NE,45,3.0,7.0,63,0.00,CLR,CLR,0.00,WeatherDisplay:10.37,2013-06-25 19:40:00,
2013-06-25 20:50:00,60.8,48.5,30.33,North,6,2.0,13.0,64,0.00,CLR,CLR,0.00,WeatherDisplay:10.37,2013-06-25 19:50:00,
2013-06-25 21:00:00,60.8,48.5,30.33,NE,46,3.0,9.0,64,0.00,CLR,CLR,0.00,WeatherDisplay:10.37,2013-06-25 20:00:00,
2013-06-25 21:10:00,60.3,48.4,30.33,North,359,5.0,8.0,65,0.00,CLR,CLR,0.00,WeatherDisplay:10.37,2013-06-25 20:10:00,
2013-06-25 21:20:00,60.1,48.7,30.33,North,353,3.0,7.0,66,0.00,CLR,CLR,0.00,WeatherDisplay:10.37,2013-06-25 20:20:00,
2013-06-25 21:30:00,59.9,48.5,30.33,NE,40,5.0,7.0,66,0.00,CLR,CLR,0.00,WeatherDisplay:10.37,2013-06-25 20:30:00,
2013-06-25 21:40:00,59.9,48.9,30.34,NNE,15,3.0,12.0,67,0.00,CLR,CLR,0.00,WeatherDisplay:10.37,2013-06-25 20:40:00,
2013-06-25 21:50:00,59.5,48.6,30.34,ENE,58,1.0,7.0,67,0.00,CLR,CLR,0.00,WeatherDisplay:10.37,2013-06-25 20:50:00,
2013-06-25 22:00:00,59.2,48.6,30.34,NNW,348,2.0,6.0,68,0.00,CLR,CLR,0.00,WeatherDisplay:10.37,2013-06-25 21:00:00,
2013-06-25 22:10:00,59.2,49.0,30.34,NNE,30,3.0,6.0,69,0.00,CLR,CLR,0.00,WeatherDisplay:10.37,2013-06-25 21:10:00,
2013-06-25 22:20:00,59.2,49.0,30.35,North,353,1.0,6.0,69,0.00,CLR,CLR,0.00,WeatherDisplay:10.37,2013-06-25 21:20:00,
2013-06-25 22:30:00,58.8,49.4,30.35,NE,52,1.0,6.0,71,0.00,CLR,CLR,0.00,WeatherDisplay:10.37,2013-06-25 21:30:00,
2013-06-25 22:40:00,58.8,49.4,30.36,NNE,20,1.0,6.0,71,0.00,CLR,CLR,0.00,WeatherDisplay:10.37,2013-06-25 21:40:00,
2013-06-25 22:50:00,58.6,49.3,30.36,NNE,32,3.0,6.0,71,0.00,CLR,CLR,0.00,WeatherDisplay:10.37,2013-06-25 21:50:00,
2013-06-25 23:00:00,58.5,49.5,30.36,ENE,62,1.0,6.0,72,0.00,CLR,CLR,0.00,WeatherDisplay:10.37,2013-06-25 22:00:00,
2013-06-25 23:10:00,58.1,49.5,30.36,North,360,2.0,6.0,73,0.00,CLR,CLR,0.00,WeatherDisplay:10.37,2013-06-25 22:10:00,
2013-06-25 23:20:00,57.9,49.7,30.36,North,1,3.0,8.0,74,0.00,CLR,CLR,0.00,WeatherDisplay:10.37,2013-06-25 22:20:00,
2013-06-25 23:30:00,57.7,49.5,30.36,NNE,31,3.0,8.0,74,0.00,CLR,CLR,0.00,WeatherDisplay:10.37,2013-06-25 22:30:00,
2013-06-25 23:40:00,57.6,49.0,30.36,NNE,18,1.0,5.0,73,0.00,CLR,CLR,0.00,WeatherDisplay:10.37,2013-06-25 22:40:00,
2013-06-25 23:50:00,57.4,48.8,30.36,NE,46,1.0,5.0,73,0.00,CLR,CLR,0.00,WeatherDisplay:10.37,2013-06-25 22:50:00,